Wind_Speed
3 5 4 3 3 6 11 14 15 19 22 24 25 31 27 27 26 24 22 24 24 21 17 18 18 17 14 13 12 8 6 4 4 5 4 5 6 7 7 9 10 9 10
4 4 3 4 3 6 11 14 16 19 23 24 27 30 27 25 23 22 21 21 20 17 17 16 14 12 11 10 9 7 7 7 7 7 6 6 6 7 8 8 8 9 10
3 2 3 5 6 9 13 15 16 19 22 23 29 29 27 24 24 22 20 19 17 17 16 14 14 13 12 12 11 12 12 11 10 9 8 7 8 8 7 7 7 7 9
3 2 3 5 9 12 15 17 18 21 22 24 29 31 26 23 20 18 18 18 17 16 16 16 16 18 19 19 18 16 15 15 14 12 9 7 6 7 6 6 8 8 9
7 5 4 1 10 15 17 18 20 23 24 29 30 29 22 21 17 15 15 15 14 16 18 20 21 21 16 16 13 13 11 11 14 11 11 8 4 3 3 3 7 7 8
8 10 10 4 10 18 19 20 22 24 26 29 29 24 21 18 16 14 15 17 17 17 20 20 19 15 15 14 13 12 12 12 13 11 10 9 5 4 3 5 6 6 7
10 10 10 8 12 17 19 21 23 26 28 27 26 21 20 18 16 16 15 15 18 19 19 18 18 15 14 11 11 11 12 14 13 11 9 9 7 5 5 5 5 6 7
12 12 11 9 9 13 19 23 26 28 28 28 24 21 21 17 16 21 14 18 18 19 18 17 16 14 11 9 8 8 9 12 13 12 11 10 10 6 6 5 5 7 7
12 13 11 10 9 12 17 21 26 28 29 25 24 18 18 17 18 17 16 17 17 19 17 16 14 11 8 7 8 7 7 8 10 12 12 9 10 9 5 4 5 5 6
10 12 13 10 10 10 14 15 26 16 24 23 20 17 14 16 16 17 15 14 16 17 16 14 11 9 5 5 5 6 7 8 7 8 10 10 9 7 6 4 3 5 5
9 9 13 13 11 13 13 17 23 20 25 21 20 16 13 19 16 15 15 15 13 15 14 12 10 7 4 2 1 2 4 5 4 5 5 7 7 5 4 4 2 2 4
10 10 12 14 13 14 15 15 17 21 21 23 19 15 19 20 14 14 14 12 12 12 12 11 10 8 7 4 3 1 3 4 4 4 6 5 4 4 4 1 1 1 2
10 11 11 12 14 13 13 14 17 20 21 20 17 20 24 21 12 10 11 11 11 11 11 10 10 9 7 6 6 7 7 6 6 7 6 3 5 4 5 5 3 2 3
11 12 13 12 14 16 17 16 18 17 17 23 21 22 19 11 8 8 8 9 9 8 9 10 8 7 5 6 6 7 7 6 8 5 6 8 5 6 10 8 7 5 5
13 14 13 12 14 15 16 19 17 12 15 18 24 20 12 9 8 6 5 5 5 5 7 9 7 7 7 8 8 9 10 10 9 8 8 8 9 10 10 9 9 10 9
12 12 13 12 14 15 13 14 19 20 19 17 15 15 6 7 4 5 5 5 4 4 6 8 10 11 11 12 11 10 10 10 12 12 12 12 11 12 14 11 10 8 13
12 12 13 14 12 13 13 11 12 15 14 12 10 8 5 6 5 4 5 5 5 6 6 9 11 12 15 15 15 14 15 13 14 15 16 16 15 14 15 16 13 17 12
16 14 14 14 13 13 15 12 11 10 9 8 8 7 9 10 9 8 7 6 7 9 11 12 13 14 16 17 18 18 17 16 16 18 18 17 17 17 18 18 17 18 15
17 15 13 16 15 13 13 14 12 11 8 8 9 9 10 10 11 9 8 8 12 13 14 14 15 17 19 19 19 18 16 19 17 18 18 17 18 18 16 17 15 14 13
17 15 13 15 15 14 13 14 15 13 12 11 10 10 10 9 12 14 13 14 14 14 14 16 18 19 20 16 15 18 18 18 20 21 20 21 22 21 19 18 18 15 14
16 17 15 14 13 15 16 17 17 15 13 12 10 8 9 11 11 12 12 14 15 15 14 14 17 15 16 15 16 19 18 18 18 19 20 19 20 19 20 19 16 17 17
18 13 15 13 13 15 17 14 15 14 14 14 12 11 10 12 13 15 13 15 14 12 11 12 14 16 14 13 13 14 11 12 12 14 14 16 17 19 20 17 12 13 13
23 14 8 14 14 13 15 15 15 16 14 13 12 11 10 11 12 12 13 14 13 13 11 13 13 16 15 12 13 11 7 5 14 11 13 12 14 14 16 15 11 10 9
27 21 11 11 19 14 13 15 14 13 11 10 9 9 9 10 10 10 12 12 13 14 14 15 16 18 17 16 15 15 15 17 13 12 14 15 14 12 14 15 16 13 10
24 25 18 13 18 15 16 15 14 13 11 7 8 10 8 10 11 10 10 10 11 12 13 15 16 18 18 19 18 17 16 16 17 18 23 18 13 12 11 14 14 15 11
28 28 28 21 17 20 18 15 14 12 10 10 10 9 9 9 10 11 9 11 13 14 15 16 15 16 17 17 18 19 18 17 15 14 15 15 14 10 11 12 13 14 12
Wind_Direction
126 127 123 121 136 134 144 138 139 132 128 137 139 142 136 132 133 128 128 131 129 120 118 123 119 119 125 131 137 154 165 154 144 130 125 123 136 138 136 135 143 144 133
137 146 144 142 157 161 154 147 147 142 140 142 140 143 141 134 134 131 130 131 128 122 124 126 128 127 134 133 133 138 119 122 119 115 117 118 128 132 135 134 141 141 145
165 147 192 191 184 170 164 154 150 148 149 148 147 146 139 137 137 135 132 131 130 126 129 130 130 130 125 125 121 113 111 102 93 87 90 108 120 135 137 144 160 158 147
59 65 173 201 196 180 171 161 152 147 148 154 150 146 138 136 133 131 131 130 128 126 130 130 128 118 116 114 111 108 99 91 80 68 76 84 125 135 132 145 163 165 163
70 79 49 178 193 182 172 164 157 151 153 151 147 147 142 138 136 132 136 140 132 130 128 129 126 120 117 111 107 102 96 85 78 68 66 71 108 145 172 182 172 173 177
80 68 45 89 156 171 169 166 162 153 153 153 152 151 149 145 137 131 129 133 133 129 132 129 126 122 122 113 101 92 85 79 76 67 67 61 86 123 153 167 178 178 181
74 75 71 82 142 162 167 167 162 157 155 152 150 151 154 148 137 129 127 134 132 134 134 131 125 125 119 109 99 89 78 70 64 62 57 59 59 105 132 154 178 187 177
72 73 84 81 128 160 170 170 165 157 154 153 153 151 151 142 129 121 130 134 139 138 139 134 131 132 120 112 107 101 86 74 58 50 47 50 58 91 142 149 164 184 184
76 66 75 98 116 153 168 173 168 152 153 156 148 146 145 138 137 132 134 136 140 148 148 145 143 144 129 103 101 102 87 63 52 42 39 40 55 66 105 147 170 182 187
80 71 71 94 121 141 149 156 118 146 153 147 147 139 139 135 133 141 136 141 144 154 158 161 160 158 145 105 93 81 66 45 41 43 35 28 36 49 73 108 151 175 186
108 89 76 75 98 124 132 127 138 154 155 153 148 149 140 139 134 144 141 143 149 158 163 171 178 180 193 157 113 11 16 17 29 18 17 20 21 19 49 85 109 181 200
131 106 88 77 85 116 127 134 139 146 149 157 160 142 151 140 134 139 141 146 151 155 160 169 181 194 204 216 215 347 326 345 2 354 357 337 344 356 343 358 125 171 223
140 117 105 89 86 103 127 138 138 141 144 150 154 154 139 125 135 143 147 147 150 157 158 161 162 168 181 203 250 282 292 310 319 320 315 334 289 305 304 300 284 237 213
145 139 127 116 106 99 106 129 140 144 144 145 139 126 126 135 147 141 144 152 155 163 168 165 171 184 210 233 257 249 265 281 309 308 285 271 300 308 298 278 273 262 251
167 151 139 131 128 118 107 117 131 131 139 161 126 139 141 149 130 126 147 159 161 179 193 203 222 243 258 261 273 275 256 269 286 279 297 284 289 285 315 268 268 261 248
184 168 155 142 150 146 128 130 128 125 129 130 136 155 158 176 141 155 175 187 208 210 217 229 253 261 265 269 275 277 273 275 272 279 279 284 278 278 283 288 265 273 268
201 188 177 162 156 165 147 144 160 155 157 165 157 182 206 219 234 236 231 237 232 238 236 251 264 272 271 269 274 275 274 276 272 274 268 270 274 269 275 276 270 258 272
211 210 196 188 181 171 176 169 169 182 186 181 194 221 233 237 245 250 258 252 258 274 266 271 276 281 278 280 279 279 277 272 273 275 275 269 271 272 270 266 270 262 262
219 219 217 209 203 192 190 197 194 194 204 217 232 244 237 244 245 255 269 275 281 283 276 278 287 289 291 282 280 279 281 279 276 273 274 271 278 274 272 270 263 266 255
227 227 229 228 223 211 209 212 214 219 223 221 231 241 235 246 249 259 271 280 281 282 289 289 288 291 287 288 280 280 281 275 275 276 275 275 276 271 268 273 262 269 264
231 231 230 227 230 223 221 219 216 227 241 236 240 242 238 249 256 261 269 263 271 279 293 298 295 299 312 298 292 296 290 282 275 274 280 278 272 264 261 267 267 273 255
230 223 228 229 219 224 223 224 235 242 249 246 243 247 250 252 254 267 272 277 282 288 307 304 303 306 309 307 302 309 313 303 282 273 279 286 282 264 257 253 273 279 257
234 232 230 239 228 223 228 233 239 231 244 249 248 253 255 259 261 264 270 279 292 294 312 311 309 312 306 297 301 298 308 297 312 294 294 290 302 286 245 239 238 261 268
230 228 220 228 230 225 222 230 233 238 260 267 264 262 266 264 269 275 277 285 298 306 314 314 315 319 310 304 296 290 285 278 291 298 292 301 300 299 263 237 237 244 249
234 223 226 232 220 225 225 238 241 247 255 270 269 259 258 258 269 273 267 270 281 293 304 309 313 318 310 302 298 296 288 282 280 284 298 305 293 296 282 242 229 229 238
239 233 225 232 222 226 230 242 245 249 253 254 249 258 276 275 282 292 285 291 287 296 298 299 307 313 306 296 296 287 283 279 275 289 291 304 309 314 316 239 225 233 229
Height
1513 1513 1514 1514 1515 1517 1518 1519 1521 1522 1524 1527 1527 1530 1534 1536 1539 1541 1544 1545 1546 1548 1550 1551 1552 1554 1556 1557 1558 1560 1561 1562 1562 1562 1563 1563 1564 1565 1566 1568 1569 1571 1572
1514 1514 1515 1515 1516 1519 1519 1521 1523 1524 1526 1530 1530 1532 1537 1539 1542 1544 1547 1548 1549 1550 1552 1553 1554 1556 1557 1558 1560 1561 1562 1563 1563 1563 1564 1564 1565 1566 1567 1569 1571 1572 1574
1515 1515 1515 1515 1517 1519 1520 1522 1524 1526 1528 1531 1532 1535 1539 1542 1544 1546 1548 1550 1551 1552 1554 1555 1556 1558 1559 1560 1561 1562 1563 1563 1563 1564 1564 1564 1565 1567 1569 1570 1572 1573 1575
1516 1516 1516 1516 1517 1520 1521 1523 1526 1528 1530 1533 1534 1538 1542 1544 1547 1549 1551 1552 1553 1554 1556 1557 1559 1560 1562 1563 1564 1565 1565 1564 1564 1565 1565 1565 1566 1568 1570 1572 1573 1574 1575
1517 1517 1516 1515 1516 1519 1523 1525 1528 1530 1532 1536 1538 1541 1544 1546 1549 1551 1553 1554 1555 1556 1558 1559 1561 1563 1565 1566 1567 1566 1566 1566 1566 1566 1566 1566 1567 1568 1570 1572 1573 1574 1576
1520 1518 1516 1516 1516 1520 1524 1527 1530 1532 1535 1539 1541 1544 1546 1549 1551 1553 1555 1555 1557 1559 1560 1562 1564 1566 1567 1568 1569 1569 1568 1568 1568 1569 1568 1568 1568 1569 1571 1572 1574 1575 1577
1522 1520 1520 1520 1521 1523 1525 1528 1532 1535 1537 1541 1544 1546 1548 1551 1553 1553 1556 1558 1559 1561 1563 1565 1566 1568 1569 1570 1571 1571 1570 1570 1570 1570 1570 1570 1570 1571 1572 1573 1575 1576 1577
1524 1523 1523 1523 1525 1525 1527 1530 1532 1535 1539 1543 1545 1549 1551 1553 1555 1555 1558 1560 1562 1564 1566 1567 1569 1570 1571 1572 1572 1572 1573 1572 1573 1573 1572 1572 1572 1572 1574 1575 1576 1576 1578
1527 1527 1527 1527 1527 1527 1530 1532 1533 1524 1536 1545 1546 1552 1554 1556 1558 1559 1560 1563 1565 1566 1568 1569 1571 1572 1573 1574 1574 1575 1575 1575 1575 1575 1574 1574 1574 1574 1574 1575 1576 1577 1578
1532 1532 1531 1531 1530 1530 1533 1535 1502 1531 1540 1548 1553 1555 1556 1558 1560 1561 1564 1565 1567 1569 1570 1572 1573 1574 1575 1576 1576 1577 1577 1577 1576 1576 1576 1575 1575 1575 1575 1576 1577 1578 1579
1535 1536 1535 1534 1533 1534 1536 1539 1537 1541 1546 1551 1553 1556 1558 1559 1561 1564 1566 1568 1570 1571 1572 1574 1575 1576 1577 1578 1578 1578 1578 1578 1578 1578 1577 1576 1576 1576 1576 1576 1577 1578 1579
1537 1539 1538 1538 1538 1538 1539 1542 1544 1546 1550 1553 1557 1558 1560 1561 1563 1567 1568 1570 1572 1573 1574 1575 1576 1577 1578 1579 1580 1580 1579 1579 1579 1578 1578 1577 1577 1577 1577 1577 1577 1578 1578
1540 1541 1541 1542 1542 1542 1543 1545 1548 1550 1554 1556 1557 1560 1563 1564 1567 1570 1571 1571 1573 1574 1576 1577 1578 1579 1580 1580 1581 1580 1580 1579 1579 1578 1578 1576 1576 1577 1577 1577 1578 1578 1578
1542 1543 1544 1545 1546 1547 1546 1548 1551 1554 1556 1559 1561 1563 1566 1567 1570 1572 1573 1574 1574 1576 1577 1578 1579 1580 1580 1580 1580 1580 1579 1579 1578 1577 1576 1576 1576 1576 1576 1576 1577 1577 1577
1544 1545 1546 1548 1549 1551 1552 1552 1554 1557 1558 1559 1560 1566 1568 1571 1573 1574 1575 1576 1577 1578 1579 1579 1579 1579 1579 1579 1579 1578 1578 1578 1577 1576 1575 1575 1575 1575 1575 1575 1575 1576 1576
1546 1547 1549 1550 1552 1554 1556 1557 1559 1560 1562 1565 1567 1570 1571 1572 1574 1575 1576 1577 1578 1578 1579 1579 1578 1578 1578 1577 1577 1577 1576 1576 1575 1574 1573 1573 1573 1573 1573 1573 1574 1574 1575
1546 1548 1550 1552 1554 1556 1558 1560 1562 1563 1565 1567 1570 1572 1573 1574 1574 1576 1577 1577 1578 1578 1578 1578 1578 1577 1576 1575 1574 1574 1574 1573 1573 1572 1571 1570 1569 1569 1570 1570 1571 1569 1572
1547 1549 1551 1553 1555 1557 1559 1562 1564 1565 1566 1568 1569 1571 1573 1575 1575 1576 1577 1577 1577 1578 1578 1577 1576 1575 1575 1573 1572 1572 1571 1570 1570 1569 1568 1567 1567 1567 1567 1567 1568 1569 1572
1547 1549 1551 1553 1555 1558 1560 1562 1564 1566 1567 1568 1569 1571 1572 1573 1574 1575 1576 1576 1577 1576 1576 1575 1574 1573 1572 1571 1570 1570 1569 1568 1567 1566 1565 1564 1564 1563 1563 1564 1564 1564 1567
1547 1550 1552 1553 1555 1558 1560 1562 1564 1565 1567 1569 1570 1571 1572 1572 1573 1574 1575 1575 1575 1575 1575 1574 1572 1571 1569 1569 1567 1567 1566 1566 1564 1563 1562 1561 1560 1560 1560 1560 1561 1561 1562
1547 1549 1551 1553 1555 1557 1559 1560 1562 1563 1565 1567 1569 1570 1571 1572 1573 1573 1574 1574 1576 1575 1573 1572 1569 1569 1569 1568 1565 1564 1563 1561 1560 1559 1559 1557 1557 1557 1557 1558 1558 1558 1559
1546 1549 1551 1553 1556 1557 1559 1560 1562 1564 1565 1566 1568 1568 1570 1571 1572 1571 1572 1572 1571 1571 1570 1570 1568 1567 1565 1562 1564 1561 1559 1558 1556 1556 1555 1554 1553 1552 1554 1556 1556 1556 1557
1544 1547 1550 1552 1555 1556 1558 1560 1561 1563 1564 1565 1566 1566 1568 1569 1570 1570 1570 1571 1571 1570 1568 1567 1566 1565 1564 1564 1563 1563 1560 1557 1555 1554 1553 1552 1550 1549 1549 1552 1553 1555 1555
1542 1547 1550 1552 1554 1555 1557 1559 1560 1561 1562 1563 1564 1565 1567 1568 1568 1569 1569 1570 1569 1569 1568 1568 1566 1565 1564 1563 1562 1561 1560 1558 1556 1552 1551 1550 1548 1548 1547 1548 1550 1553 1554
1539 1545 1549 1551 1553 1554 1556 1558 1558 1559 1561 1562 1563 1564 1565 1566 1566 1566 1566 1566 1565 1565 1565 1565 1564 1563 1562 1562 1561 1560 1559 1557 1555 1553 1548 1547 1547 1547 1546 1547 1548 1550 1552
1537 1541 1546 1549 1551 1553 1555 1556 1558 1559 1560 1561 1562 1563 1563 1564 1564 1564 1564 1563 1563 1562 1561 1560 1560 1559 1559 1558 1557 1556 1555 1555 1553 1552 1549 1546 1545 1545 1545 1545 1546 1548 1549